[[{"header":{"parameterUnit":"m.s-1","parameterCategory":1,"la1":30.2991,"la2":30.254,"lo1":-89.0895,"lo2":-89.0444,"dy":0.0017,"dx":0.0017,"nx":28,"ny":28,"refTime":"2024-04-30T03:00:00:Z","depth":0,"parameterNumber":2,"parameterNumberName":"U-component_of_WINDS"},"data":[0,0,0,0,0,0,0,0,0,0,0,0,0,0,0,0,0,0,0,0,0,0,0,0,0,0,0,0,0,0,0,0,0,0,0,0,0,0,0,0,0,0,0,0,0,0,0,0,0,0,0,0,0,0,0,0,0,0,-0.6608,-0.661,0,-0.6853,-0.6856,-0.6859,-0.7,-0.7,-0.7001,-0.7001,-0.7256,-0.7262,-0.7269,0,0,0,0,0,0,0,0,0,0,0,0,0,-0.6265,-0.627,-0.6607,-0.661,-0.6613,-0.6853,-0.6856,-0.6859,-0.7,-0.7,-0.7001,-0.7001,-0.7254,-0.7262,-0.7269,0,0,0,0,0,0,0,0,0,0,0,0,0,-0.6452,-0.6272,-0.6607,-0.6712,-0.6724,-0.6852,-0.6856,-0.686,-0.6999,-0.7,-0.7001,-0.7002,-0.7252,-0.7261,-0.727,-0.7314,0,0,-0.7299,-0.7303,0,0,0,0,0,0,0,0,-0.6441,-0.6465,-0.6694,-0.6705,-0.6719,-0.6896,-0.6829,-0.7012,-0.6999,-0.6895,-0.7001,-0.7002,-0.7136,-0.7155,-0.72,-0.7325,-0.7336,-0.73,-0.7306,-0.731,-0.7313,0,0,0,0,0,0,0,-0.6428,-0.6455,-0.6705,-0.6697,-0.6712,-0.6749,-0.6776,-0.6864,-0.7008,-0.6904,-0.6915,-0.6942,-0.7143,-0.719,-0.7207,-0.734,-0.73,-0.7308,-0.7314,-0.7318,-0.7516,-0.7516,0,0,0,0,0,0,-0.6398,-0.6443,-0.6697,-0.6712,-0.6579,-0.6754,-0.6785,-0.6839,-0.7008,-0.7034,-0.6941,-0.6947,-0.7174,-0.7195,-0.7216,-0.7279,-0.731,-0.7319,-0.7324,-0.7517,-0.7516,-0.7516,0,0,0,0,0,0,-0.639,-0.6419,-0.6687,-0.6581,-0.6618,-0.6759,-0.6818,-0.6843,-0.689,-0.7036,-0.7062,-0.6962,-0.7175,-0.7203,-0.7289,-0.729,-0.7323,-0.7332,-0.7517,-0.7516,-0.7516,-0.7404,0,0,0,0,0,0,-0.6379,-0.6415,-0.6432,-0.658,-0.6623,-0.6753,-0.6819,-0.6847,-0.6906,-0.6917,-0.7063,-0.7088,-0.7178,-0.7274,-0.7298,-0.7304,-0.7339,-0.7518,-0.7517,-0.7516,-0.7409,-0.74,-0.7393,0,0,0,0,0,-0.6367,-0.6391,-0.6432,-0.6462,-0.6646,-0.6753,-0.6778,-0.688,-0.6905,-0.6924,-0.7018,-0.7083,-0.7286,-0.7281,-0.731,-0.7318,-0.7518,-0.7517,-0.7516,-0.7412,-0.7402,-0.7393,0,0,0,0,0,0,-0.6241,-0.6412,-0.646,-0.6532,-0.6627,-0.6777,-0.6803,-0.6865,-0.6956,-0.6962,-0.7087,-0.7119,-0.7192,-0.7265,-0.7256,-0.737,-0.7409,-0.7414,-0.732,-0.7312,-0.7304,-0.7285,-0.7347,0,0,0,0,0,-0.6221,-0.6292,-0.6439,-0.6489,-0.6534,-0.666,-0.6711,-0.6781,-0.6885,-0.6926,-0.7026,-0.7125,-0.7211,-0.7266,-0.7353,-0.742,-0.7455,-0.744,-0.7432,-0.7425,-0.7428,-0.747,-0.7466,-0.7513,-0.7513,-0.7513,0,0,-0.6182,-0.6285,-0.6322,-0.6467,-0.6548,-0.6621,-0.6693,-0.6766,-0.6822,-0.6938,-0.7024,-0.7101,-0.722,-0.7296,-0.7335,-0.7359,-0.7422,-0.7424,-0.7417,-0.7424,-0.7468,-0.7464,-0.746,-0.7512,-0.7512,-0.7512,0,0,-0.6148,-0.6232,-0.6284,-0.6364,-0.6486,-0.657,-0.6582,-0.6723,-0.6778,-0.6867,-0.6956,-0.7024,-0.717,-0.7252,-0.7312,-0.731,-0.7373,-0.7335,-0.7293,-0.7333,-0.7329,-0.7327,-0.7327,-0.7325,-0.7337,-0.7337,-0.7337,0,-0.6084,-0.6195,-0.6303,-0.6371,-0.6433,-0.654,-0.6594,-0.6667,-0.6812,-0.6853,-0.6877,-0.7063,-0.7151,-0.7248,-0.7248,-0.7293,-0.7312,-0.7319,-0.7321,-0.7319,-0.7319,-0.732,-0.732,-0.7331,-0.7332,-0.7332,-0.7333,0,-0.6112,-0.6187,-0.6215,-0.6351,-0.6416,-0.6476,-0.6595,-0.6648,-0.6713,-0.6794,-0.6885,-0.6994,-0.7106,-0.7134,-0.7199,-0.7242,-0.7253,-0.7297,-0.7339,-0.7307,-0.7311,-0.7312,-0.7323,-0.7325,-0.7327,-0.7328,0,0,-0.6005,-0.6199,-0.6208,-0.6271,-0.6414,-0.6476,-0.6542,-0.6651,-0.6695,-0.6791,-0.6851,-0.6973,-0.7015,-0.7083,-0.7159,-0.7193,-0.7186,-0.7234,-0.7239,-0.7222,-0.7242,-0.7207,-0.7206,-0.7229,-0.723,-0.723,-0.7232,0,-0.5992,-0.6114,-0.6213,-0.63,-0.6372,-0.6476,-0.6534,-0.6629,-0.6707,-0.6782,-0.687,-0.6954,-0.7003,-0.7045,-0.7084,-0.7178,-0.7192,-0.718,-0.7288,-0.729,-0.7255,-0.7208,-0.7172,-0.7169,-0.7234,-0.7234,-0.7235,0,-0.5993,-0.6084,-0.6177,-0.6314,-0.6348,-0.6398,-0.6506,-0.6575,-0.6686,-0.6741,-0.6818,-0.6896,-0.6973,-0.7007,-0.7116,-0.7105,-0.7156,-0.7209,-0.7211,-0.7226,-0.726,-0.7222,-0.717,-0.7169,-0.7238,-0.7238,-0.7237,0,-0.5906,-0.6053,-0.6128,-0.6179,-0.634,-0.6373,-0.6442,-0.6554,-0.6613,-0.6708,-0.6748,-0.6851,-0.6908,-0.6986,-0.7091,-0.7106,-0.719,-0.7232,-0.7239,-0.7236,-0.7252,-0.7249,-0.7207,-0.7283,-0.7283,-0.7283,-0.7283,0,-0.5881,-0.5934,-0.6091,-0.6137,-0.62,-0.6315,-0.6375,-0.6453,-0.6551,-0.6616,-0.6713,-0.6772,-0.6906,-0.6982,-0.7064,-0.7143,-0.7167,-0.7215,-0.7237,-0.7207,-0.7201,-0.7242,-0.7245,-0.7283,-0.7283,-0.7283,-0.7283,0,-0.5795,-0.5902,-0.5991,-0.6136,-0.6174,-0.6214,-0.6339,-0.6389,-0.6473,-0.6554,-0.6579,-0.6712,-0.6806,-0.6918,-0.7049,-0.7105,-0.7176,-0.7208,-0.7138,-0.7151,-0.7152,-0.715,-0.7135,-0.7139,-0.721,-0.7209,-0.7208,0,-0.5772,-0.5815,-0.5965,-0.6014,-0.608,-0.6159,-0.6219,-0.6334,-0.6394,-0.6524,-0.6559,-0.666,-0.6747,-0.6894,-0.7003,-0.7104,-0.7139,-0.7127,-0.7155,-0.7124,-0.714,-0.7136,-0.7142,-0.7119,-0.7118,-0.7117,-0.7116,0,-0.5721,-0.5772,-0.5855,-0.5956,-0.6026,-0.6112,-0.6202,-0.6238,-0.6372,-0.6434,-0.6531,-0.6599,-0.6733,-0.6833,-0.6948,-0.7022,-0.7092,-0.7106,-0.7113,-0.7083,-0.7042,-0.7065,-0.7118,-0.7106,-0.7107,-0.7108,-0.7108,-0.7109,-0.5667,-0.571,-0.5822,-0.5912,-0.5992,-0.6074,-0.6128,-0.6219,-0.6301,-0.6418,-0.6481,-0.6577,-0.6689,-0.6851,-0.6922,-0.7,-0.7025,-0.7034,-0.7037,-0.7038,-0.703,-0.7028,-0.7022,-0.7022,-0.7022,-0.7023,-0.7023,0,-0.5621,-0.5698,-0.5779,-0.5902,-0.5973,-0.6031,-0.6135,-0.6191,-0.6273,-0.6371,-0.6455,-0.6567,-0.6665,-0.6782,-0.6888,-0.6928,-0.6963,-0.6952,-0.6951,-0.6967,-0.7001,-0.6985,-0.6922,-0.6922,-0.6922,-0.6922,-0.6922,-0.6922,-0.5605,-0.5682,-0.5746,-0.5865,-0.5943,-0.6036,-0.609,-0.6168,-0.6246,-0.6367,-0.6448,-0.6523,-0.663,-0.6744,-0.6838,-0.687,-0.6905,-0.6884,-0.6926,-0.6956,-0.6964,-0.6973,-0.6958,-0.6891,-0.6891,-0.6886,-0.6885,-0.6885]},{"header":{"parameterUnit":"m.s-1","parameterCategory":1,"la1":30.2991,"la2":30.254,"lo1":-89.0895,"lo2":-89.0444,"dy":0.0017,"dx":0.0017,"nx":28,"ny":28,"refTime":"2024-04-30T03:00:00:Z","depth":0,"parameterNumber":3,"parameterNumberName":"V-component_of_WINDS"},"data":[0,0,0,0,0,0,0,0,0,0,0,0,0,0,0,0,0,0,0,0,0,0,0,0,0,0,0,0,0,0,0,0,0,0,0,0,0,0,0,0,0,0,0,0,0,0,0,0,0,0,0,0,0,0,0,0,0,0,1.7208,1.7213,0,1.7704,1.771,1.7715,1.7943,1.7943,1.7942,1.7942,1.8457,1.8471,1.8485,0,0,0,0,0,0,0,0,0,0,0,0,0,1.6465,1.6477,1.7207,1.7214,1.722,1.7703,1.771,1.7717,1.7943,1.7943,1.7942,1.7941,1.8452,1.8469,1.8486,0,0,0,0,0,0,0,0,0,0,0,0,0,1.6857,1.6481,1.7206,1.7391,1.7412,1.7702,1.771,1.7719,1.7943,1.7943,1.7942,1.7941,1.8447,1.8468,1.8489,1.8634,0,0,1.8554,1.8563,0,0,0,0,0,0,0,0,1.6834,1.6884,1.7358,1.7379,1.7403,1.7761,1.7638,1.8026,1.7943,1.7742,1.7942,1.7941,1.8226,1.8266,1.8361,1.8658,1.868,1.8555,1.8568,1.8577,1.8583,0,0,0,0,0,0,0,1.6807,1.6864,1.7404,1.7364,1.7392,1.7452,1.7507,1.7712,1.7982,1.7759,1.7777,1.7832,1.8239,1.834,1.8375,1.8688,1.8555,1.8574,1.8587,1.8595,1.9135,1.9136,0,0,0,0,0,0,1.6749,1.684,1.7389,1.7419,1.7111,1.7466,1.7527,1.7647,1.7981,1.8031,1.7832,1.7841,1.8304,1.8349,1.8393,1.8589,1.8577,1.8597,1.8609,1.9133,1.9135,1.9137,0,0,0,0,0,0,1.6732,1.6795,1.7369,1.7135,1.7212,1.7479,1.7612,1.7657,1.7758,1.8036,1.8086,1.7885,1.8305,1.8364,1.8573,1.861,1.8607,1.8626,1.9131,1.9134,1.9136,1.8977,0,0,0,0,0,0,1.6709,1.6788,1.6843,1.7134,1.7224,1.7536,1.7614,1.7667,1.7793,1.7809,1.8099,1.8146,1.8309,1.854,1.8594,1.8639,1.8643,1.9129,1.9132,1.9135,1.898,1.8974,1.8968,0,0,0,0,0,1.6682,1.678,1.6845,1.691,1.7298,1.7538,1.759,1.7773,1.7795,1.7855,1.8034,1.8137,1.8596,1.856,1.8622,1.8674,1.9128,1.9131,1.9135,1.8983,1.8975,1.8968,0,0,0,0,0,0,1.6489,1.6821,1.6897,1.7091,1.7284,1.7575,1.7657,1.7758,1.7951,1.7958,1.818,1.8244,1.8434,1.8576,1.8528,1.8835,1.8872,1.8888,1.8735,1.873,1.8723,1.8686,1.866,0,0,0,0,0,1.6468,1.6632,1.6915,1.7059,1.7152,1.7387,1.7498,1.7623,1.7833,1.7916,1.8111,1.8313,1.8504,1.8625,1.8815,1.9002,1.907,1.9069,1.9063,1.9056,1.9068,1.9181,1.9184,1.9148,1.9148,1.9148,0,0,1.6428,1.663,1.6721,1.7026,1.719,1.7358,1.7454,1.7627,1.7755,1.7944,1.8153,1.8303,1.8544,1.8742,1.884,1.8867,1.9093,1.9061,1.9053,1.907,1.9185,1.9188,1.9191,1.9151,1.915,1.915,0,0,1.6442,1.661,1.675,1.6912,1.7159,1.7315,1.7348,1.7625,1.7731,1.7945,1.809,1.8247,1.857,1.8736,1.8863,1.8941,1.9044,1.8998,1.8966,1.9073,1.9076,1.908,1.911,1.9118,1.9008,1.9008,1.9008,0,1.6362,1.6618,1.6809,1.6975,1.7106,1.7282,1.7428,1.7577,1.7874,1.7962,1.7987,1.8397,1.8572,1.8814,1.8833,1.8929,1.8977,1.8966,1.906,1.9065,1.9072,1.9103,1.9114,1.9001,1.9002,1.9002,1.9003,0,1.6509,1.6684,1.6768,1.7048,1.719,1.7344,1.7561,1.7682,1.7795,1.7949,1.8166,1.8382,1.862,1.8687,1.8799,1.8946,1.8955,1.9016,1.9058,1.9065,1.9098,1.9112,1.899,1.8993,1.8995,1.8997,0,0,1.6414,1.6798,1.6826,1.6957,1.7243,1.7384,1.7548,1.7779,1.7879,1.8079,1.8225,1.8494,1.8554,1.8698,1.8831,1.8925,1.8976,1.8977,1.8986,1.897,1.9155,1.9107,1.9117,1.9046,1.9049,1.9051,1.9135,0,1.6468,1.6766,1.6944,1.7172,1.7338,1.7509,1.7653,1.7846,1.7995,1.8161,1.8328,1.8516,1.8579,1.8667,1.8767,1.8948,1.9016,1.8945,1.9186,1.9192,1.9121,1.9135,1.9085,1.9153,1.9149,1.9152,1.9153,0,1.6571,1.6764,1.7007,1.7277,1.7354,1.7479,1.7707,1.7862,1.8086,1.8188,1.8348,1.8483,1.8667,1.8692,1.8951,1.8898,1.9008,1.9112,1.9119,1.915,1.9173,1.9167,1.918,1.919,1.9175,1.9174,1.9172,0,1.6479,1.6801,1.6989,1.7095,1.7414,1.7498,1.7636,1.7859,1.7987,1.8187,1.8274,1.8493,1.8613,1.8782,1.8973,1.8974,1.9213,1.9254,1.9306,1.9301,1.9349,1.9343,1.938,1.9416,1.9416,1.9416,1.9416,0,1.6521,1.6663,1.6952,1.7067,1.7234,1.7438,1.7598,1.775,1.7947,1.8098,1.8261,1.8399,1.8642,1.8812,1.8963,1.9156,1.9209,1.9299,1.9338,1.9285,1.9274,1.9361,1.9362,1.9419,1.9418,1.9418,1.9417,0,1.6447,1.6645,1.6861,1.7145,1.722,1.733,1.7576,1.7696,1.7854,1.8043,1.81,1.8349,1.8557,1.8764,1.9045,1.9147,1.9337,1.9389,1.926,1.9282,1.9323,1.9316,1.9418,1.9443,1.9458,1.9458,1.9458,0,1.6461,1.6574,1.687,1.6981,1.7114,1.7292,1.7424,1.7631,1.7762,1.8027,1.8116,1.8336,1.8524,1.8849,1.9058,1.9274,1.9333,1.9354,1.9367,1.9311,1.9336,1.9327,1.9341,1.9347,1.9346,1.9345,1.9344,0,1.6466,1.6559,1.674,1.6958,1.7109,1.7291,1.7479,1.7562,1.7807,1.7946,1.816,1.8305,1.8592,1.881,1.9051,1.9197,1.9313,1.9338,1.9362,1.931,1.9232,1.9277,1.9245,1.9335,1.9336,1.9337,1.9337,1.9338,1.6439,1.6548,1.6773,1.6972,1.7134,1.7306,1.7434,1.7608,1.7789,1.8037,1.8149,1.8365,1.8591,1.8926,1.907,1.9245,1.9275,1.9308,1.9317,1.9323,1.9312,1.9202,1.9289,1.929,1.9291,1.9291,1.9291,0,1.6453,1.6607,1.6787,1.7043,1.72,1.7293,1.7506,1.7632,1.7819,1.8018,1.8198,1.8446,1.8659,1.8883,1.911,1.9207,1.9266,1.9259,1.9255,1.9287,1.9271,1.9228,1.9208,1.9208,1.9208,1.9208,1.9208,1.9208,1.6479,1.667,1.679,1.7065,1.722,1.743,1.7544,1.7705,1.7865,1.8133,1.831,1.8454,1.8666,1.8909,1.9109,1.9171,1.9247,1.9226,1.9302,1.9282,1.9288,1.9294,1.9255,1.924,1.924,1.9305,1.9305,1.9306]}]]